Location: Taupo
(38.6830°S, 176.0830°E)
Time: 03:21:10
(UTC+12:00)

Resurs 01 Rocket - Pass Details

Date: 24 January 2019
Orbit: 634 x 645 km, 98.1° (Epoch: 17 April)

Event Time Altitude Azimuth Distance (km) Brightness Sun altitude
Rises 21:36:35 0° 156° (SSE) 2,972 5.2 -10.8°
Reaches altitude 10° 21:39:04 10° 144° (SE) 2,052 4.2 -11.2°
Maximum altitude 21:42:58 29° 84° (E) 1,182 2.5 -11.8°
Enters shadow 21:45:44 16° 32° (NNE) 1,670 3.2 -12.2°
